[[{"header":{"parameterUnit":"m.s-1","parameterCategory":1,"la1":30.2991,"la2":30.254,"lo1":-89.0895,"lo2":-89.0444,"dy":0.0017,"dx":0.0017,"nx":28,"ny":28,"refTime":"2025-11-26T03:00:00:Z","depth":0,"parameterNumber":2,"parameterNumberName":"U-component_of_WINDS"},"data":[0,0,0,0,0,0,0,0,0,0,0,0,0,0,0,0,0,0,0,0,0,0,0,0,0,0,0,0,0,0,0,0,0,0,0,0,0,0,0,0,0,0,0,0,0,0,0,0,0,0,0,0,0,0,0,0,0,0,0.8548,0.8548,0,0.8549,0.8549,0.8549,0.8538,0.8537,0.8537,0.8537,0.8539,0.8539,0.854,0,0,0,0,0,0,0,0,0,0,0,0,0,0.8539,0.854,0.8548,0.8548,0.8548,0.8549,0.8549,0.8549,0.8538,0.8537,0.8537,0.8536,0.8539,0.8539,0.854,0,0,0,0,0,0,0,0,0,0,0,0,0,0.8542,0.854,0.8548,0.8543,0.8542,0.8549,0.8549,0.8549,0.8538,0.8537,0.8537,0.8536,0.8539,0.8539,0.854,0.8553,0,0,0.8541,0.8542,0,0,0,0,0,0,0,0,0.8542,0.8542,0.8543,0.8543,0.8542,0.8543,0.8547,0.855,0.8538,0.8539,0.8537,0.8536,0.8541,0.8541,0.8542,0.8553,0.8553,0.8541,0.8542,0.8542,0.8542,0,0,0,0,0,0,0,0.8542,0.8542,0.8549,0.8544,0.8543,0.8541,0.8541,0.8548,0.8543,0.8539,0.8538,0.8539,0.854,0.8542,0.8542,0.8553,0.8541,0.8542,0.8542,0.8542,0.8577,0.8577,0,0,0,0,0,0,0.8542,0.8542,0.8549,0.8549,0.8541,0.8542,0.8541,0.8543,0.8543,0.8542,0.8539,0.8538,0.8541,0.8542,0.8542,0.8559,0.8542,0.8542,0.8543,0.8576,0.8577,0.8577,0,0,0,0,0,0,0.8542,0.8543,0.8549,0.8545,0.8546,0.8542,0.8544,0.8543,0.8545,0.8542,0.8542,0.8541,0.8541,0.8541,0.8551,0.8559,0.8543,0.8543,0.8575,0.8576,0.8577,0.8592,0,0,0,0,0,0,0.8542,0.8543,0.8547,0.8545,0.8546,0.8556,0.8545,0.8544,0.8546,0.8544,0.8544,0.8544,0.854,0.855,0.8551,0.8559,0.8544,0.8575,0.8576,0.8577,0.859,0.8593,0.8595,0,0,0,0,0,0.8541,0.8551,0.8547,0.8548,0.8551,0.8557,0.8557,0.8552,0.8546,0.8551,0.855,0.8544,0.8558,0.8551,0.8552,0.8561,0.8574,0.8575,0.8577,0.8589,0.8592,0.8595,0,0,0,0,0,0,0.8553,0.855,0.8546,0.8555,0.8556,0.8555,0.856,0.8556,0.8559,0.8557,0.8552,0.8552,0.8563,0.8562,0.8555,0.8574,0.8565,0.8567,0.8574,0.8577,0.8579,0.8579,0.8544,0,0,0,0,0,0.8557,0.8561,0.8558,0.8567,0.8567,0.8564,0.8566,0.8563,0.8564,0.8564,0.8563,0.8565,0.857,0.8573,0.8578,0.859,0.8591,0.8597,0.8599,0.8601,0.8603,0.8612,0.8615,0.8582,0.8582,0.8582,0,0,0.8564,0.8563,0.8566,0.8569,0.8569,0.8575,0.8564,0.857,0.8574,0.8565,0.8574,0.8574,0.8575,0.8587,0.8592,0.8587,0.8612,0.8603,0.8604,0.8605,0.8613,0.8617,0.8619,0.8583,0.8582,0.8582,0,0,0.8581,0.858,0.8588,0.8589,0.8589,0.8587,0.8589,0.8589,0.8588,0.8597,0.8591,0.8596,0.8604,0.8607,0.8609,0.8628,0.8624,0.863,0.8642,0.8651,0.8653,0.8656,0.8664,0.8667,0.8632,0.8632,0.8632,0,0.8591,0.8598,0.8592,0.8599,0.8601,0.8593,0.8602,0.8603,0.8606,0.8608,0.8602,0.8614,0.8614,0.8627,0.8632,0.8633,0.8637,0.863,0.8653,0.8656,0.8658,0.8666,0.8669,0.8632,0.8632,0.8632,0.8632,0,0.861,0.8615,0.8622,0.8624,0.8627,0.8635,0.8632,0.8636,0.8632,0.8631,0.8642,0.8642,0.8647,0.865,0.8646,0.8663,0.866,0.8654,0.8645,0.8662,0.867,0.8673,0.8634,0.8633,0.8633,0.8633,0,0,0.8633,0.8634,0.8637,0.8639,0.864,0.8644,0.8653,0.8658,0.8662,0.8664,0.8672,0.868,0.8675,0.8677,0.8674,0.8682,0.87,0.8675,0.8675,0.8681,0.872,0.8725,0.8729,0.8696,0.8697,0.8697,0.872,0,0.8651,0.8664,0.866,0.8674,0.868,0.8673,0.8681,0.8683,0.8683,0.8689,0.8688,0.8695,0.8687,0.8688,0.8695,0.8696,0.8708,0.8694,0.8705,0.8705,0.8705,0.8733,0.8738,0.8759,0.8723,0.8724,0.8724,0,0.8672,0.8676,0.8691,0.8693,0.8695,0.8701,0.8707,0.8712,0.8715,0.8715,0.8718,0.8715,0.8724,0.8714,0.8728,0.8719,0.8724,0.8725,0.8726,0.8727,0.8716,0.8736,0.8766,0.877,0.8728,0.8728,0.8728,0,0.869,0.8698,0.8709,0.871,0.8713,0.8718,0.8719,0.8722,0.8726,0.8731,0.8734,0.8739,0.8743,0.8749,0.8747,0.874,0.8762,0.8752,0.8763,0.8764,0.8769,0.8769,0.8801,0.877,0.877,0.877,0.877,0,0.871,0.872,0.8717,0.8723,0.8734,0.8731,0.8742,0.8743,0.8745,0.8753,0.8747,0.8755,0.8752,0.8759,0.8758,0.8771,0.8773,0.8774,0.8773,0.8775,0.8775,0.8778,0.8777,0.8771,0.877,0.877,0.877,0,0.8731,0.873,0.8741,0.8742,0.8743,0.8751,0.8753,0.876,0.876,0.877,0.8772,0.8772,0.878,0.878,0.8789,0.8789,0.8805,0.8803,0.8804,0.8804,0.8816,0.8816,0.8853,0.8858,0.8822,0.8823,0.8823,0,0.8745,0.8752,0.8755,0.8759,0.8761,0.8768,0.8773,0.877,0.8775,0.878,0.8787,0.8795,0.8802,0.8817,0.8818,0.8826,0.8825,0.8837,0.8826,0.8828,0.8827,0.8827,0.8828,0.884,0.884,0.884,0.8841,0,0.8769,0.8769,0.8775,0.8781,0.8786,0.8791,0.8796,0.88,0.8798,0.8804,0.8813,0.8818,0.8829,0.8838,0.8846,0.8849,0.8845,0.8844,0.8848,0.8849,0.8851,0.8852,0.8812,0.8843,0.8843,0.8843,0.8843,0.8843,0.8788,0.8795,0.8798,0.8806,0.8809,0.8814,0.8821,0.8822,0.883,0.8838,0.8836,0.8847,0.8852,0.8863,0.8866,0.8876,0.8871,0.8876,0.8877,0.8879,0.8881,0.8848,0.8877,0.8877,0.8877,0.8877,0.8877,0,0.8813,0.8816,0.8823,0.883,0.8836,0.8832,0.8837,0.8843,0.8853,0.8858,0.8865,0.8876,0.8886,0.8888,0.8898,0.8905,0.8904,0.8908,0.8908,0.8909,0.8883,0.888,0.8909,0.8909,0.8909,0.8909,0.8909,0.8909,0.8828,0.884,0.884,0.8854,0.8857,0.8867,0.8871,0.8876,0.888,0.8893,0.8901,0.8903,0.8908,0.8918,0.8927,0.8927,0.8932,0.8937,0.8937,0.8913,0.891,0.8907,0.8904,0.8937,0.8938,0.8962,0.8962,0.8963]},{"header":{"parameterUnit":"m.s-1","parameterCategory":1,"la1":30.2991,"la2":30.254,"lo1":-89.0895,"lo2":-89.0444,"dy":0.0017,"dx":0.0017,"nx":28,"ny":28,"refTime":"2025-11-26T03:00:00:Z","depth":0,"parameterNumber":3,"parameterNumberName":"V-component_of_WINDS"},"data":[0,0,0,0,0,0,0,0,0,0,0,0,0,0,0,0,0,0,0,0,0,0,0,0,0,0,0,0,0,0,0,0,0,0,0,0,0,0,0,0,0,0,0,0,0,0,0,0,0,0,0,0,0,0,0,0,0,0,-4.4576,-4.4576,0,-4.4614,-4.4615,-4.4615,-4.4579,-4.4578,-4.4576,-4.4575,-4.4611,-4.4613,-4.4615,0,0,0,0,0,0,0,0,0,0,0,0,0,-4.4467,-4.4469,-4.4576,-4.4576,-4.4577,-4.4614,-4.4615,-4.4615,-4.4579,-4.4577,-4.4576,-4.4574,-4.461,-4.4613,-4.4616,0,0,0,0,0,0,0,0,0,0,0,0,0,-4.4511,-4.447,-4.4576,-4.4563,-4.4563,-4.4614,-4.4615,-4.4616,-4.458,-4.4577,-4.4575,-4.4573,-4.4609,-4.4613,-4.4616,-4.4681,0,0,-4.4627,-4.4628,0,0,0,0,0,0,0,0,-4.4508,-4.4515,-4.4565,-4.4564,-4.4564,-4.459,-4.459,-4.4637,-4.458,-4.4573,-4.4575,-4.4572,-4.4605,-4.4609,-4.4621,-4.4682,-4.4684,-4.4627,-4.4629,-4.463,-4.4631,0,0,0,0,0,0,0,-4.4505,-4.4513,-4.4591,-4.4566,-4.4565,-4.4555,-4.4558,-4.4599,-4.4601,-4.4574,-4.4571,-4.4576,-4.4605,-4.4618,-4.4621,-4.4684,-4.4627,-4.463,-4.4632,-4.4633,-4.48,-4.4802,0,0,0,0,0,0,-4.4504,-4.4511,-4.459,-4.4592,-4.453,-4.4558,-4.4563,-4.4584,-4.46,-4.4601,-4.4578,-4.4574,-4.4613,-4.4617,-4.4623,-4.4699,-4.463,-4.4634,-4.4636,-4.4798,-4.48,-4.4803,0,0,0,0,0,0,-4.4502,-4.4512,-4.4588,-4.4551,-4.456,-4.4563,-4.4586,-4.4585,-4.4598,-4.4604,-4.4604,-4.4591,-4.4611,-4.4618,-4.4666,-4.47,-4.4635,-4.4638,-4.4795,-4.4798,-4.4802,-4.4852,0,0,0,0,0,0,-4.4499,-4.4511,-4.4537,-4.4552,-4.4562,-4.4633,-4.4588,-4.4588,-4.4605,-4.4601,-4.4616,-4.4616,-4.461,-4.4662,-4.467,-4.4703,-4.4641,-4.4792,-4.4796,-4.4801,-4.4848,-4.4857,-4.4865,0,0,0,0,0,-4.4495,-4.4549,-4.4538,-4.4548,-4.4594,-4.4635,-4.4641,-4.4633,-4.4608,-4.4633,-4.4636,-4.4616,-4.4695,-4.4667,-4.4676,-4.4711,-4.479,-4.4795,-4.48,-4.4844,-4.4855,-4.4865,0,0,0,0,0,0,-4.4536,-4.4551,-4.4539,-4.4599,-4.4616,-4.4629,-4.466,-4.4646,-4.4669,-4.4664,-4.4653,-4.4656,-4.4708,-4.4714,-4.4683,-4.4774,-4.4738,-4.4745,-4.4768,-4.4779,-4.4787,-4.4784,-4.4644,0,0,0,0,0,-4.4553,-4.4586,-4.4596,-4.4648,-4.4657,-4.4657,-4.4675,-4.4668,-4.4684,-4.4691,-4.4698,-4.4714,-4.4742,-4.4761,-4.4787,-4.4848,-4.4851,-4.4877,-4.4886,-4.4893,-4.4899,-4.4931,-4.4942,-4.482,-4.482,-4.482,0,0,-4.4586,-4.4598,-4.462,-4.4657,-4.4669,-4.4702,-4.4664,-4.4701,-4.4725,-4.4696,-4.4743,-4.4748,-4.4765,-4.4821,-4.4845,-4.4827,-4.4933,-4.4899,-4.4905,-4.4907,-4.4937,-4.4949,-4.4959,-4.4824,-4.4823,-4.4823,0,0,-4.4664,-4.4677,-4.4722,-4.4735,-4.4755,-4.4754,-4.4765,-4.478,-4.4783,-4.483,-4.4809,-4.4837,-4.4886,-4.4899,-4.4912,-4.4994,-4.4976,-4.5003,-4.5049,-4.508,-4.5089,-4.5098,-4.5126,-4.5137,-4.5009,-4.501,-4.501,0,-4.4703,-4.4754,-4.4746,-4.4785,-4.4801,-4.4778,-4.4822,-4.4835,-4.4862,-4.4873,-4.4853,-4.4914,-4.4924,-4.4981,-4.5001,-4.5013,-4.5024,-4.5001,-4.5089,-4.5097,-4.5105,-4.5132,-4.5143,-4.5013,-4.5012,-4.5012,-4.5012,0,-4.48,-4.4836,-4.4869,-4.4896,-4.4916,-4.4958,-4.4955,-4.4976,-4.4967,-4.4968,-4.5016,-4.5027,-4.5055,-4.5068,-4.5059,-4.5124,-4.5112,-4.5091,-4.5054,-4.512,-4.5145,-4.5155,-4.5017,-4.5016,-4.5015,-4.5014,0,0,-4.4905,-4.4928,-4.494,-4.4952,-4.4972,-4.4998,-4.5038,-4.5066,-4.5084,-4.5103,-4.5135,-4.5177,-4.5158,-4.5172,-4.5165,-4.5192,-4.5256,-4.5167,-4.5167,-4.5183,-4.5327,-4.5342,-4.5355,-4.5244,-4.5246,-4.5248,-4.5325,0,-4.4983,-4.5054,-4.5047,-4.5113,-4.5145,-4.5123,-4.5157,-4.5173,-4.5175,-4.5201,-4.5203,-4.5233,-4.5205,-4.5214,-4.524,-4.5243,-4.5284,-4.5237,-4.5273,-4.5274,-4.5269,-4.5368,-4.5385,-4.5457,-4.5335,-4.5337,-4.5338,0,-4.5084,-4.5108,-4.5177,-4.5192,-4.5205,-4.5236,-4.5261,-4.5287,-4.5303,-4.5302,-4.5319,-4.5306,-4.5345,-4.5308,-4.536,-4.5328,-4.5342,-4.5346,-4.5348,-4.535,-4.531,-4.5372,-4.548,-4.549,-4.5354,-4.5352,-4.5351,0,-4.5153,-4.5202,-4.5249,-4.526,-4.5279,-4.5301,-4.5309,-4.5323,-4.5341,-4.5362,-4.5373,-4.5398,-4.5412,-4.5431,-4.5425,-4.5399,-4.5478,-4.5441,-4.5478,-4.5478,-4.5495,-4.5494,-4.5606,-4.5506,-4.5505,-4.5505,-4.5505,0,-4.524,-4.5283,-4.5281,-4.531,-4.5357,-4.5349,-4.5395,-4.5401,-4.5413,-4.5442,-4.5425,-4.5452,-4.5443,-4.5469,-4.5465,-4.5508,-4.5514,-4.5514,-4.5512,-4.5516,-4.5515,-4.5524,-4.5519,-4.5508,-4.5507,-4.5507,-4.5506,0,-4.5325,-4.5325,-4.5375,-4.5389,-4.5393,-4.5427,-4.5438,-4.5464,-4.5465,-4.5502,-4.551,-4.5511,-4.5541,-4.5537,-4.5571,-4.5568,-4.5621,-4.5614,-4.5616,-4.5614,-4.5651,-4.5647,-4.5771,-4.5787,-4.5677,-4.5678,-4.5679,0,-4.5381,-4.5413,-4.543,-4.5449,-4.5459,-4.549,-4.5507,-4.55,-4.5519,-4.554,-4.5564,-4.5592,-4.5615,-4.5664,-4.5667,-4.5692,-4.5684,-4.5726,-4.5688,-4.5689,-4.5684,-4.5681,-4.5684,-4.5733,-4.5734,-4.5735,-4.5736,0,-4.5479,-4.5478,-4.5504,-4.5531,-4.5553,-4.5573,-4.5592,-4.5607,-4.5602,-4.5624,-4.5655,-4.5672,-4.5707,-4.5735,-4.5759,-4.5766,-4.575,-4.5748,-4.5758,-4.5761,-4.5761,-4.5761,-4.5636,-4.5745,-4.5745,-4.5744,-4.5743,-4.5743,-4.5551,-4.5578,-4.5595,-4.5625,-4.5638,-4.5655,-4.5681,-4.5686,-4.5712,-4.574,-4.5734,-4.5768,-4.5783,-4.5813,-4.5823,-4.5849,-4.5833,-4.5848,-4.5851,-4.5854,-4.5858,-4.5758,-4.5853,-4.5853,-4.5853,-4.5852,-4.5852,0,-4.5647,-4.5657,-4.5685,-4.5711,-4.5735,-4.5719,-4.5738,-4.5758,-4.579,-4.5805,-4.5828,-4.5863,-4.589,-4.5895,-4.5921,-4.5941,-4.5934,-4.5947,-4.5945,-4.5947,-4.5871,-4.586,-4.5952,-4.5952,-4.5952,-4.5952,-4.5952,-4.5952,-4.5701,-4.5747,-4.5747,-4.5798,-4.5807,-4.5842,-4.5854,-4.587,-4.5882,-4.5922,-4.5945,-4.5949,-4.5959,-4.5986,-4.6009,-4.601,-4.602,-4.6036,-4.6034,-4.5963,-4.5953,-4.5943,-4.5932,-4.6039,-4.6039,-4.6108,-4.6108,-4.6109]}]]